Location: Unspecified
(43.1763°N, 79.4719°W)
Time: 01:44:10
(UTC-04:00)

ISS - Visible Passes

Search period start: 19 March 2019 00:00
Search period end: 29 March 2019 00:00
Orbit: 406 x 411 km, 51.6° (Epoch: 19 March)

Date Brightness Start Highest point End Pass type
(mag) Time Alt. Az. Time Alt. Az. Time Alt. Az.
20 Mar -2.4 20:53:11 10° SSW 20:55:12 24° SSE 20:55:12 24° SSE visible
21 Mar -1.9 20:03:09 10° S 20:05:10 15° SE 20:07:11 10° E visible
21 Mar -2.2 21:38:04 10° WSW 21:40:02 33° WSW 21:40:02 33° WSW visible
22 Mar -3.9 20:47:03 10° SW 20:50:19 66° SE 20:51:50 28° ENE visible
22 Mar -0.4 22:24:15 10° WNW 22:24:37 12° WNW 22:24:37 12° WNW visible
23 Mar -2.5 21:32:49 10° W 21:35:54 36° NNW 21:36:12 35° N visible
24 Mar -3.2 20:41:30 10° WSW 20:44:44 55° NNW 20:47:36 13° NE visible
24 Mar -0.7 22:19:16 10° WNW 22:20:21 16° NW 22:20:21 16° NW visible
25 Mar -1.8 21:27:45 10° WNW 21:30:30 24° NNW 21:31:36 20° NNE visible
26 Mar -2.1 20:36:15 10° W 20:39:14 30° NNW 20:42:14 10° NE visible
26 Mar -0.9 22:14:07 10° NW 22:15:28 16° NNW 22:15:28 16° NNW visible
27 Mar -1.5 21:22:41 10° NW 21:25:10 19° N 21:26:30 15° NNE visible
28 Mar -1.6 20:31:10 10° WNW 20:33:48 22° NNW 20:36:27 10° NE visible
28 Mar -1.1 22:08:39 10° NW 22:10:12 18° NNW 22:10:12 18° NNW visible
